Total_Precipitation_Accumulation
0.00 0.00 0.00 0.00 0.00 0.00 0.00 0.00 0.00 0.00 0.00 0.00 0.00 0.00 0.00 0.00 0.00 0.00 0.00 0.00 0.00 0.00 0.00 0.00 0.00 0.00 0.00 0.00 0.00 0.00 0.00 0.00 0.00 0.01 0.00 0.06 0.07 0.05 0.04 0.05 0.05 0.02 0.06 0.04 0.02 0.01 0.01 0.02 0.01 0.02 0.02 0.02 0.05 0.02 0.01 0.07 0.04 0.05 0.08 0.06 0.01 0.01 0.02 0.07 0.05 0.07 0.04 0.03 0.02 0.02 0.05 0.11 0.10 0.08 0.07 0.07 0.08 0.06 0.08 0.06 0.22 0.30 0.44 0.95 1.59 0.85
0.00 0.00 0.00 0.00 0.00 0.00 0.00 0.00 0.00 0.00 0.00 0.00 0.00 0.00 0.00 0.00 0.00 0.00 0.00 0.00 0.00 0.00 0.00 0.00 0.00 0.00 0.00 0.00 0.00 0.00 0.00 0.00 0.00 0.00 0.00 0.00 0.05 0.04 0.02 0.01 0.06 0.05 0.02 0.03 0.02 0.02 0.05 0.01 0.01 0.01 0.02 0.02 0.03 0.01 0.01 0.02 0.03 0.02 0.03 0.04 0.06 0.05 0.02 0.03 0.07 0.19 0.12 0.03 0.03 0.06 0.10 0.04 0.04 0.06 0.05 0.04 0.02 0.05 0.08 0.08 0.25 0.14 0.37 0.52 0.41 0.26
0.00 0.00 0.00 0.00 0.00 0.00 0.00 0.00 0.00 0.00 0.00 0.00 0.00 0.00 0.00 0.00 0.00 0.00 0.00 0.00 0.00 0.00 0.00 0.00 0.00 0.00 0.01 0.00 0.00 0.01 0.00 0.00 0.00 0.00 0.00 0.00 0.01 0.00 0.04 0.03 0.06 0.01 0.02 0.01 0.03 0.01 0.01 0.02 0.01 0.02 0.00 0.01 0.00 0.00 0.00 0.01 0.02 0.02 0.02 0.05 0.03 0.10 0.09 0.06 0.16 0.08 0.05 0.07 0.04 0.07 0.05 0.03 0.01 0.01 0.01 0.01 0.02 0.02 0.06 0.05 0.39 0.20 0.17 0.16 0.13 0.14
0.00 0.00 0.00 0.00 0.00 0.00 0.00 0.00 0.00 0.00 0.00 0.00 0.00 0.00 0.00 0.00 0.00 0.01 0.00 0.00 0.00 0.00 0.00 0.00 0.00 0.00 0.01 0.00 0.00 0.00 0.00 0.00 0.00 0.00 0.00 0.00 0.00 0.01 0.02 0.04 0.03 0.02 0.05 0.01 0.00 0.03 0.01 0.01 0.00 0.00 0.00 0.00 0.00 0.00 0.00 0.00 0.00 0.00 0.00 0.01 0.02 0.06 0.12 0.08 0.05 0.11 0.12 0.09 0.10 0.01 0.01 0.01 0.00 0.01 0.00 0.00 0.01 0.02 0.06 0.15 0.41 0.34 0.17 0.36 0.20 0.13
0.00 0.00 0.00 0.00 0.00 0.00 0.00 0.00 0.00 0.00 0.00 0.00 0.00 0.00 0.00 0.00 0.00 0.00 0.00 0.00 0.00 0.00 0.00 0.00 0.00 0.04 0.03 0.00 0.00 0.00 0.00 0.00 0.00 0.00 0.00 0.00 0.00 0.00 0.01 0.01 0.01 0.01 0.01 0.07 0.08 0.02 0.00 0.01 0.00 0.00 0.00 0.00 0.00 0.00 0.00 0.00 0.00 0.00 0.00 0.00 0.01 0.01 0.01 0.03 0.02 0.02 0.01 0.01 0.02 0.02 0.02 0.01 0.02 0.00 0.01 0.01 0.01 0.01 0.02 0.04 0.06 0.07 0.07 0.10 0.11 0.11
0.00 0.00 0.00 0.00 0.00 0.00 0.00 0.00 0.00 0.00 0.00 0.00 0.00 0.00 0.00 0.00 0.00 0.00 0.00 0.00 0.00 0.00 0.00 0.00 0.04 0.05 0.04 0.04 0.00 0.00 0.01 0.00 0.00 0.00 0.00 0.00 0.00 0.00 0.01 0.00 0.01 0.02 0.02 0.01 0.00 0.02 0.02 0.01 0.02 0.00 0.00 0.00 0.00 0.00 0.00 0.00 0.00 0.00 0.00 0.01 0.00 0.01 0.01 0.00 0.00 0.00 0.01 0.00 0.00 0.02 0.04 0.02 0.01 0.01 0.01 0.00 0.00 0.01 0.01 0.01 0.02 0.03 0.04 0.03 0.03 0.04
0.00 0.00 0.00 0.00 0.00 0.00 0.00 0.00 0.00 0.00 0.00 0.00 0.00 0.00 0.00 0.00 0.00 0.00 0.00 0.00 0.01 0.02 0.00 0.00 0.03 0.05 0.06 0.31 0.14 0.04 0.01 0.01 0.01 0.00 0.00 0.00 0.00 0.00 0.00 0.00 0.00 0.00 0.00 0.00 0.00 0.09 0.03 0.02 0.00 0.02 0.00 0.00 0.00 0.00 0.00 0.00 0.00 0.00 0.00 0.00 0.00 0.00 0.00 0.00 0.00 0.00 0.00 0.00 0.00 0.00 0.01 0.00 0.01 0.00 0.00 0.00 0.00 0.00 0.00 0.01 0.01 0.01 0.01 0.01 0.01 0.01
0.00 0.00 0.00 0.00 0.00 0.00 0.00 0.00 0.00 0.00 0.00 0.00 0.00 0.00 0.00 0.00 0.00 0.00 0.00 0.00 0.01 0.00 0.00 0.00 0.00 0.07 0.04 0.01 0.01 0.00 0.03 0.01 0.02 0.00 0.00 0.00 0.00 0.00 0.00 0.00 0.00 0.00 0.00 0.00 0.00 0.01 0.01 0.02 0.01 0.00 0.00 0.00 0.00 0.00 0.00 0.00 0.00 0.00 0.00 0.00 0.00 0.00 0.00 0.00 0.00 0.00 0.00 0.00 0.00 0.00 0.00 0.00 0.00 0.00 0.00 0.00 0.00 0.00 0.00 0.00 0.00 0.00 0.00 0.01 0.01 0.02
0.00 0.00 0.00 0.00 0.00 0.00 0.00 0.00 0.00 0.00 0.00 0.00 0.00 0.00 0.00 0.00 0.00 0.00 0.00 0.00 0.00 0.01 0.06 0.00 0.00 0.04 0.01 0.01 0.00 0.01 0.03 0.00 0.00 0.01 0.00 0.00 0.00 0.00 0.00 0.00 0.00 0.01 0.00 0.00 0.00 0.00 0.00 0.00 0.01 0.01 0.00 0.00 0.00 0.00 0.00 0.00 0.00 0.00 0.00 0.00 0.00 0.00 0.00 0.00 0.00 0.00 0.00 0.00 0.00 0.00 0.01 0.00 0.00 0.00 0.00 0.00 0.00 0.01 0.01 0.00 0.00 0.00 0.00 0.00 0.00 0.01
0.00 0.00 0.00 0.00 0.00 0.00 0.00 0.00 0.00 0.00 0.00 0.00 0.00 0.00 0.00 0.00 0.00 0.00 0.00 0.00 0.00 0.00 0.02 0.00 0.01 0.05 0.02 0.00 0.00 0.00 0.00 0.01 0.00 0.01 0.02 0.00 0.01 0.01 0.01 0.01 0.01 0.00 0.00 0.00 0.00 0.00 0.00 0.00 0.01 0.00 0.00 0.00 0.00 0.00 0.00 0.00 0.00 0.00 0.00 0.00 0.00 0.00 0.00 0.00 0.00 0.00 0.00 0.00 0.00 0.00 0.00 0.00 0.00 0.00 0.00 0.00 0.00 0.00 0.00 0.00 0.00 0.00 0.00 0.00 0.01 0.01
0.00 0.00 0.00 0.00 0.00 0.00 0.00 0.00 0.00 0.00 0.00 0.00 0.00 0.00 0.00 0.00 0.00 0.00 0.00 0.00 0.00 0.00 0.00 0.00 0.01 0.00 0.02 0.01 0.01 0.00 0.00 0.00 0.04 0.01 0.00 0.01 0.01 0.01 0.01 0.01 0.01 0.02 0.01 0.00 0.01 0.00 0.02 0.00 0.02 0.00 0.00 0.00 0.00 0.00 0.00 0.00 0.00 0.00 0.00 0.00 0.00 0.00 0.00 0.00 0.00 0.00 0.00 0.00 0.00 0.00 0.00 0.00 0.00 0.00 0.00 0.00 0.00 0.00 0.00 0.00 0.00 0.01 0.00 0.00 0.01 0.00
0.00 0.00 0.00 0.00 0.00 0.00 0.00 0.00 0.00 0.00 0.00 0.00 0.00 0.00 0.00 0.00 0.00 0.00 0.00 0.00 0.00 0.00 0.00 0.00 0.01 0.00 0.02 0.00 0.00 0.00 0.00 0.00 0.00 0.00 0.00 0.00 0.00 0.01 0.01 0.02 0.00 0.00 0.02 0.00 0.01 0.00 0.01 0.00 0.00 0.01 0.00 0.00 0.00 0.01 0.00 0.00 0.00 0.00 0.00 0.00 0.00 0.00 0.00 0.00 0.00 0.00 0.00 0.00 0.00 0.00 0.00 0.00 0.00 0.00 0.00 0.00 0.00 0.00 0.00 0.00 0.00 0.00 0.01 0.00 0.00 0.00
0.00 0.00 0.00 0.00 0.00 0.00 0.00 0.00 0.00 0.00 0.00 0.00 0.00 0.00 0.00 0.00 0.00 0.00 0.00 0.00 0.00 0.00 0.01 0.00 0.00 0.00 0.01 0.00 0.00 0.00 0.00 0.00 0.00 0.00 0.00 0.00 0.00 0.00 0.01 0.00 0.02 0.00 0.02 0.01 0.00 0.01 0.02 0.00 0.01 0.00 0.00 0.00 0.00 0.00 0.00 0.00 0.00 0.00 0.00 0.00 0.00 0.00 0.00 0.00 0.00 0.00 0.00 0.00 0.00 0.00 0.00 0.00 0.00 0.00 0.00 0.00 0.00 0.00 0.00 0.00 0.00 0.00 0.00 0.00 0.00 0.00
0.00 0.00 0.00 0.00 0.00 0.00 0.00 0.00 0.00 0.00 0.00 0.00 0.00 0.00 0.00 0.00 0.00 0.00 0.00 0.00 0.00 0.00 0.00 0.00 0.00 0.00 0.00 0.01 0.00 0.00 0.00 0.00 0.00 0.00 0.00 0.00 0.00 0.00 0.00 0.00 0.00 0.00 0.00 0.03 0.01 0.01 0.00 0.00 0.01 0.00 0.00 0.00 0.00 0.00 0.00 0.00 0.00 0.00 0.00 0.00 0.00 0.00 0.00 0.00 0.00 0.00 0.00 0.00 0.00 0.00 0.00 0.00 0.00 0.00 0.00 0.00 0.00 0.00 0.00 0.00 0.00 0.00 0.00 0.00 0.00 0.00
0.00 0.00 0.00 0.00 0.00 0.00 0.00 0.00 0.00 0.00 0.00 0.00 0.00 0.00 0.00 0.00 0.00 0.00 0.00 0.00 0.00 0.00 0.00 0.00 0.00 0.00 0.00 0.00 0.00 0.00 0.00 0.00 0.00 0.00 0.00 0.00 0.00 0.02 0.00 0.00 0.00 0.00 0.00 0.02 0.03 0.02 0.00 0.00 0.02 0.00 0.00 0.00 0.00 0.00 0.00 0.00 0.00 0.00 0.00 0.00 0.00 0.00 0.00 0.00 0.00 0.00 0.00 0.00 0.00 0.00 0.00 0.00 0.00 0.00 0.00 0.00 0.00 0.00 0.00 0.00 0.00 0.01 0.01 0.00 0.01 0.00
0.00 0.00 0.00 0.00 0.00 0.00 0.00 0.00 0.00 0.00 0.00 0.00 0.00 0.00 0.00 0.00 0.00 0.00 0.00 0.00 0.00 0.00 0.00 0.00 0.00 0.00 0.00 0.00 0.00 0.00 0.00 0.00 0.00 0.00 0.00 0.00 0.00 0.00 0.02 0.00 0.00 0.00 0.00 0.01 0.00 0.02 0.00 0.00 0.02 0.00 0.00 0.00 0.00 0.00 0.00 0.00 0.00 0.00 0.00 0.00 0.00 0.00 0.00 0.00 0.00 0.00 0.00 0.00 0.00 0.00 0.00 0.00 0.00 0.00 0.00 0.00 0.00 0.00 0.00 0.00 0.00 0.00 0.01 0.01 0.01 0.01
0.00 0.00 0.00 0.00 0.00 0.00 0.00 0.00 0.00 0.00 0.00 0.00 0.00 0.00 0.00 0.00 0.00 0.00 0.00 0.00 0.00 0.00 0.00 0.00 0.00 0.00 0.00 0.00 0.00 0.00 0.00 0.00 0.00 0.00 0.00 0.00 0.00 0.00 0.00 0.00 0.00 0.00 0.00 0.00 0.00 0.00 0.00 0.01 0.00 0.00 0.03 0.00 0.00 0.00 0.00 0.00 0.00 0.00 0.00 0.00 0.00 0.00 0.00 0.00 0.00 0.00 0.00 0.00 0.00 0.00 0.00 0.00 0.00 0.00 0.00 0.00 0.00 0.00 0.00 0.00 0.00 0.00 0.01 0.00 0.01 0.01
0.00 0.00 0.00 0.00 0.00 0.00 0.00 0.00 0.00 0.00 0.00 0.00 0.00 0.00 0.00 0.00 0.00 0.00 0.00 0.00 0.00 0.00 0.00 0.00 0.00 0.01 0.00 0.00 0.00 0.00 0.00 0.00 0.00 0.00 0.00 0.00 0.00 0.00 0.00 0.00 0.01 0.00 0.00 0.00 0.00 0.00 0.00 0.01 0.00 0.01 0.03 0.00 0.00 0.00 0.00 0.00 0.00 0.00 0.00 0.00 0.00 0.00 0.00 0.00 0.00 0.00 0.00 0.00 0.00 0.00 0.00 0.00 0.00 0.00 0.00 0.00 0.00 0.00 0.00 0.00 0.00 0.00 0.01 0.00 0.00 0.00
0.00 0.00 0.00 0.00 0.00 0.00 0.00 0.00 0.00 0.00 0.00 0.00 0.00 0.00 0.00 0.00 0.00 0.00 0.00 0.00 0.00 0.00 0.00 0.00 0.00 0.00 0.00 0.00 0.00 0.00 0.00 0.00 0.00 0.00 0.00 0.00 0.00 0.00 0.00 0.00 0.00 0.00 0.00 0.00 0.00 0.01 0.00 0.00 0.00 0.00 0.03 0.01 0.00 0.00 0.00 0.00 0.00 0.00 0.00 0.00 0.00 0.00 0.00 0.00 0.00 0.00 0.00 0.00 0.00 0.00 0.00 0.00 0.00 0.00 0.00 0.00 0.00 0.00 0.00 0.00 0.00 0.00 0.00 0.00 0.01 0.00
0.00 0.00 0.00 0.00 0.00 0.00 0.00 0.00 0.00 0.00 0.00 0.00 0.00 0.00 0.00 0.00 0.00 0.00 0.00 0.00 0.00 0.00 0.00 0.00 0.00 0.00 0.00 0.00 0.00 0.00 0.00 0.00 0.00 0.00 0.00 0.00 0.00 0.00 0.00 0.00 0.00 0.00 0.00 0.01 0.01 0.01 0.01 0.01 0.04 0.07 0.04 0.02 0.00 0.00 0.00 0.00 0.00 0.00 0.00 0.00 0.00 0.00 0.00 0.00 0.00 0.00 0.00 0.00 0.00 0.00 0.00 0.00 0.00 0.00 0.00 0.00 0.00 0.00 0.00 0.00 0.00 0.00 0.00 0.01 0.00 0.00
0.00 0.00 0.01 0.00 0.00 0.00 0.00 0.00 0.00 0.00 0.00 0.00 0.00 0.00 0.00 0.00 0.00 0.00 0.00 0.00 0.00 0.00 0.00 0.00 0.00 0.00 0.00 0.00 0.00 0.00 0.00 0.00 0.00 0.00 0.00 0.00 0.00 0.00 0.00 0.00 0.00 0.00 0.00 0.00 0.00 0.00 0.00 0.01 0.04 0.02 0.03 0.02 0.02 0.00 0.00 0.00 0.00 0.00 0.00 0.00 0.00 0.00 0.00 0.00 0.00 0.00 0.00 0.00 0.00 0.00 0.00 0.00 0.00 0.00 0.00 0.00 0.00 0.00 0.00 0.00 0.00 0.00 0.00 0.00 0.03 0.01
0.00 0.00 0.00 0.01 0.00 0.00 0.00 0.00 0.00 0.00 0.00 0.00 0.00 0.00 0.00 0.00 0.00 0.00 0.00 0.00 0.00 0.00 0.00 0.00 0.00 0.00 0.00 0.00 0.00 0.00 0.00 0.00 0.00 0.00 0.00 0.00 0.00 0.00 0.00 0.00 0.00 0.00 0.00 0.00 0.01 0.03 0.02 0.03 0.00 0.00 0.00 0.00 0.00 0.00 0.00 0.00 0.00 0.00 0.00 0.00 0.00 0.00 0.00 0.00 0.00 0.00 0.00 0.00 0.00 0.00 0.00 0.00 0.00 0.00 0.00 0.00 0.00 0.00 0.00 0.00 0.00 0.00 0.00 0.00 0.00 0.01
0.00 0.00 0.00 0.00 0.00 0.00 0.00 0.00 0.00 0.00 0.00 0.00 0.00 0.00 0.00 0.00 0.00 0.00 0.00 0.00 0.00 0.00 0.00 0.00 0.00 0.00 0.00 0.00 0.00 0.00 0.00 0.00 0.00 0.00 0.00 0.00 0.00 0.00 0.00 0.00 0.00 0.00 0.00 0.00 0.00 0.01 0.05 0.03 0.00 0.00 0.00 0.00 0.00 0.00 0.00 0.00 0.00 0.00 0.00 0.00 0.00 0.00 0.00 0.00 0.00 0.00 0.00 0.03 0.06 0.01 0.01 0.00 0.00 0.00 0.00 0.00 0.00 0.00 0.00 0.00 0.00 0.00 0.00 0.00 0.00 0.00
0.00 0.00 0.00 0.00 0.00 0.00 0.00 0.00 0.00 0.00 0.00 0.00 0.00 0.00 0.00 0.00 0.00 0.00 0.00 0.00 0.00 0.01 0.00 0.00 0.00 0.00 0.00 0.00 0.00 0.00 0.00 0.00 0.00 0.00 0.00 0.00 0.00 0.00 0.00 0.00 0.00 0.00 0.00 0.00 0.00 0.01 0.00 0.01 0.05 0.00 0.00 0.00 0.00 0.00 0.00 0.00 0.00 0.00 0.00 0.00 0.00 0.00 0.02 0.00 0.00 0.00 0.03 0.03 0.01 0.00 0.00 0.00 0.01 0.00 0.00 0.00 0.01 0.00 0.00 0.00 0.00 0.00 0.00 0.00 0.01 0.01
0.00 0.00 0.00 0.00 0.01 0.00 0.00 0.00 0.00 0.00 0.00 0.00 0.00 0.00 0.00 0.00 0.00 0.00 0.00 0.00 0.00 0.00 0.00 0.00 0.00 0.00 0.00 0.00 0.00 0.00 0.00 0.00 0.00 0.00 0.00 0.00 0.00 0.00 0.00 0.00 0.00 0.00 0.00 0.00 0.00 0.00 0.00 0.00 0.00 0.00 0.00 0.00 0.00 0.00 0.00 0.00 0.00 0.00 0.00 0.00 0.00 0.00 0.03 0.01 0.01 0.03 0.11 0.05 0.00 0.01 0.00 0.01 0.02 0.02 0.05 0.03 0.01 0.00 0.00 0.00 0.00 0.00 0.01 0.00 0.00 0.01
0.00 0.00 0.00 0.01 0.00 0.01 0.00 0.00 0.00 0.00 0.00 0.00 0.00 0.00 0.00 0.00 0.00 0.00 0.00 0.00 0.00 0.00 0.00 0.01 0.01 0.00 0.00 0.00 0.00 0.00 0.00 0.00 0.00 0.00 0.00 0.00 0.00 0.00 0.00 0.00 0.00 0.00 0.00 0.00 0.00 0.00 0.00 0.00 0.00 0.00 0.00 0.00 0.00 0.00 0.00 0.00 0.00 0.00 0.00 0.00 0.00 0.00 0.01 0.01 0.01 0.19 0.11 0.16 0.08 0.00 0.01 0.05 0.02 0.06 0.08 0.07 0.01 0.01 0.00 0.00 0.00 0.00 0.00 0.03 0.02 0.02
0.00 0.00 0.00 0.00 0.00 0.01 0.01 0.00 0.00 0.00 0.00 0.00 0.00 0.00 0.00 0.00 0.00 0.00 0.00 0.00 0.00 0.00 0.00 0.00 0.00 0.00 0.00 0.00 0.00 0.00 0.00 0.00 0.00 0.00 0.00 0.00 0.00 0.00 0.00 0.00 0.00 0.00 0.00 0.03 0.00 0.00 0.00 0.00 0.00 0.00 0.00 0.00 0.00 0.00 0.00 0.00 0.00 0.00 0.00 0.00 0.00 0.00 0.00 0.02 0.10 0.25 0.37 0.03 0.01 0.01 0.09 0.15 0.07 0.06 0.20 0.11 0.16 0.03 0.03 0.05 0.04 0.04 0.02 0.01 0.00 0.00
0.00 0.00 0.00 0.00 0.00 0.01 0.02 0.00 0.00 0.00 0.00 0.00 0.00 0.00 0.00 0.00 0.00 0.00 0.00 0.00 0.00 0.00 0.00 0.00 0.00 0.00 0.00 0.00 0.00 0.00 0.00 0.00 0.00 0.00 0.00 0.00 0.00 0.00 0.00 0.00 0.00 0.00 0.01 0.00 0.02 0.03 0.00 0.00 0.00 0.00 0.00 0.00 0.00 0.00 0.00 0.00 0.00 0.00 0.00 0.00 0.00 0.00 0.00 0.04 0.22 0.76 0.46 0.09 0.15 0.39 0.16 0.30 0.09 0.53 0.18 0.19 0.07 0.02 0.08 0.04 0.02 0.02 0.02 0.00 0.00 0.00
0.01 0.00 0.00 0.00 0.00 0.00 0.00 0.00 0.00 0.00 0.00 0.00 0.00 0.00 0.00 0.00 0.00 0.00 0.00 0.00 0.00 0.00 0.00 0.02 0.00 0.00 0.00 0.00 0.00 0.00 0.00 0.00 0.00 0.00 0.00 0.00 0.00 0.00 0.00 0.00 0.00 0.00 0.00 0.00 0.03 0.04 0.04 0.00 0.00 0.00 0.00 0.00 0.00 0.00 0.00 0.00 0.00 0.00 0.00 0.01 0.02 0.02 0.01 0.12 0.52 0.33 0.10 0.20 0.50 0.17 0.45 0.68 0.33 0.45 0.19 0.06 0.02 0.04 0.05 0.02 0.02 0.04 0.05 0.03 0.05 0.04
0.01 0.00 0.00 0.00 0.00 0.00 0.01 0.00 0.00 0.00 0.00 0.00 0.00 0.00 0.00 0.00 0.00 0.00 0.00 0.00 0.00 0.00 0.00 0.00 0.00 0.00 0.00 0.00 0.00 0.00 0.00 0.00 0.00 0.00 0.00 0.00 0.00 0.00 0.00 0.00 0.00 0.01 0.00 0.00 0.01 0.02 0.02 0.00 0.00 0.00 0.00 0.00 0.00 0.00 0.00 0.00 0.01 0.04 0.04 0.01 0.05 0.21 0.35 0.27 0.24 0.16 0.42 0.41 0.24 0.15 0.83 0.52 0.50 0.20 0.16 0.14 0.05 0.11 0.13 0.09 0.16 0.11 0.08 0.09 0.11 0.03
0.00 0.01 0.00 0.00 0.00 0.00 0.00 0.00 0.00 0.00 0.00 0.00 0.00 0.00 0.00 0.00 0.00 0.00 0.00 0.00 0.00 0.00 0.00 0.00 0.00 0.00 0.00 0.00 0.00 0.00 0.00 0.00 0.00 0.00 0.00 0.00 0.00 0.00 0.00 0.00 0.00 0.00 0.00 0.00 0.01 0.02 0.04 0.03 0.00 0.00 0.00 0.00 0.00 0.00 0.00 0.00 0.03 0.02 0.10 0.40 0.55 0.51 0.47 0.15 0.07 0.02 0.01 0.01 0.08 0.57 0.97 0.81 0.30 0.11 0.31 0.18 0.18 0.39 0.35 0.33 0.23 0.22 0.08 0.04 0.05 0.05
0.00 0.03 0.00 0.00 0.00 0.00 0.00 0.02 0.00 0.00 0.00 0.00 0.00 0.00 0.00 0.00 0.00 0.00 0.00 0.00 0.00 0.00 0.00 0.00 0.00 0.01 0.00 0.00 0.00 0.00 0.00 0.00 0.00 0.00 0.00 0.00 0.00 0.00 0.00 0.00 0.00 0.00 0.00 0.00 0.00 0.00 0.02 0.01 0.01 0.00 0.00 0.00 0.00 0.00 0.00 0.01 0.01 0.07 0.39 0.21 0.13 0.28 0.20 0.05 0.02 0.03 0.02 0.06 0.43 1.30 1.13 0.46 0.19 0.32 0.47 0.47 0.72 0.76 0.33 0.14 0.22 0.12 0.07 0.04 0.04 0.03
0.01 0.00 0.00 0.01 0.01 0.01 0.01 0.03 0.05 0.02 0.02 0.01 0.01 0.00 0.00 0.00 0.00 0.00 0.00 0.00 0.00 0.00 0.01 0.00 0.00 0.00 0.00 0.00 0.00 0.00 0.00 0.00 0.00 0.00 0.00 0.00 0.00 0.00 0.00 0.00 0.00 0.00 0.00 0.00 0.00 0.00 0.00 0.00 0.01 0.00 0.00 0.00 0.00 0.00 0.00 0.00 0.14 0.41 0.17 0.27 0.44 0.37 0.26 0.13 0.06 0.05 0.06 0.24 0.97 1.34 0.63 0.24 0.58 0.95 0.85 0.88 0.82 0.59 0.08 0.03 0.02 0.03 0.03 0.03 0.01 0.01
0.00 0.01 0.00 0.00 0.02 0.03 0.03 0.04 0.14 0.12 0.13 0.01 0.02 0.00 0.00 0.00 0.00 0.00 0.00 0.00 0.00 0.00 0.00 0.00 0.00 0.00 0.00 0.00 0.00 0.00 0.00 0.00 0.00 0.00 0.00 0.00 0.00 0.00 0.00 0.00 0.00 0.00 0.00 0.00 0.00 0.00 0.00 0.00 0.00 0.00 0.02 0.01 0.23 0.45 0.03 0.05 0.07 0.10 0.47 0.56 0.28 0.31 0.42 0.35 0.09 0.10 0.50 0.94 0.83 0.57 0.15 0.20 0.54 0.75 0.70 0.65 0.75 0.16 0.09 0.04 0.04 0.04 0.03 0.06 0.05 0.01
0.02 0.01 0.02 0.00 0.03 0.11 0.05 0.03 0.48 0.39 0.04 0.00 0.03 0.00 0.00 0.00 0.00 0.00 0.00 0.00 0.00 0.00 0.00 0.00 0.00 0.00 0.00 0.00 0.00 0.00 0.00 0.00 0.00 0.00 0.00 0.00 0.00 0.00 0.00 0.00 0.00 0.00 0.00 0.00 0.00 0.00 0.00 0.00 0.00 0.00 0.01 0.13 0.22 0.02 0.01 0.00 0.00 0.17 0.64 0.35 0.43 0.52 0.19 0.06 0.42 0.72 0.79 0.53 0.62 0.19 0.14 0.45 1.07 1.14 0.88 0.49 0.17 0.15 0.13 0.09 0.07 0.10 0.12 0.10 0.03 0.04
0.07 0.02 0.01 0.01 0.02 0.01 0.09 0.10 0.77 0.10 0.09 0.07 0.06 0.00 0.00 0.00 0.00 0.00 0.00 0.00 0.00 0.00 0.00 0.00 0.00 0.00 0.00 0.00 0.00 0.00 0.00 0.00 0.00 0.00 0.00 0.00 0.00 0.00 0.00 0.00 0.00 0.00 0.00 0.00 0.00 0.00 0.00 0.00 0.00 0.00 0.00 0.01 0.05 0.02 0.00 0.01 0.08 0.54 0.76 0.71 0.43 0.11 0.09 0.21 0.41 0.38 0.26 0.40 0.22 0.35 0.64 0.79 1.02 0.68 0.36 0.13 0.16 0.22 0.08 0.04 0.03 0.04 0.03 0.02 0.02 0.04
0.04 0.05 0.02 0.04 0.00 0.14 0.11 0.13 0.04 0.39 0.09 0.15 0.17 0.09 0.00 0.00 0.00 0.01 0.06 0.02 0.01 0.00 0.00 0.00 0.00 0.00 0.00 0.00 0.00 0.00 0.00 0.00 0.00 0.00 0.00 0.00 0.00 0.00 0.00 0.00 0.00 0.00 0.00 0.00 0.00 0.00 0.00 0.00 0.00 0.00 0.00 0.00 0.00 0.00 0.00 0.01 0.04 0.21 0.30 0.45 0.08 0.22 0.67 0.77 0.49 0.36 0.41 0.24 0.71 0.79 0.97 0.97 0.75 0.92 0.15 0.21 0.11 0.05 0.03 0.04 0.04 0.04 0.03 0.04 0.04 0.03
0.05 0.06 0.04 0.06 0.13 0.01 0.33 0.16 0.09 0.82 0.31 0.24 0.17 0.01 0.00 0.00 0.00 0.00 0.00 0.03 0.00 0.00 0.00 0.00 0.01 0.00 0.00 0.00 0.00 0.00 0.00 0.00 0.00 0.00 0.00 0.00 0.00 0.00 0.00 0.00 0.00 0.00 0.00 0.00 0.00 0.00 0.00 0.00 0.00 0.00 0.00 0.00 0.00 0.00 0.00 0.02 0.23 0.91 1.31 1.33 0.93 0.54 0.50 0.23 0.17 0.17 0.13 0.37 0.34 0.93 1.09 0.92 0.56 0.36 0.33 0.41 0.07 0.04 0.05 0.06 0.03 0.03 0.01 0.02 0.03 0.02
0.08 0.05 0.05 0.03 0.06 0.03 0.06 0.11 0.17 0.71 0.54 0.27 0.20 0.07 0.04 0.00 0.00 0.00 0.00 0.05 0.05 0.01 0.01 0.01 0.02 0.00 0.00 0.00 0.00 0.00 0.00 0.01 0.01 0.01 0.01 0.00 0.00 0.00 0.00 0.00 0.00 0.00 0.00 0.00 0.00 0.00 0.00 0.00 0.00 0.00 0.00 0.00 0.00 0.00 0.00 0.04 0.41 1.13 0.42 0.13 0.01 0.02 0.01 0.02 0.03 0.02 0.03 0.51 1.18 0.72 0.28 0.17 0.17 0.18 0.07 0.06 0.09 0.06 0.03 0.02 0.02 0.01 0.05 0.04 0.07 0.11
0.15 0.11 0.08 0.09 0.05 0.02 0.05 0.07 0.21 0.13 1.02 0.36 0.28 0.12 0.01 0.00 0.00 0.00 0.06 0.10 0.04 0.02 0.02 0.03 0.03 0.02 0.00 0.00 0.00 0.00 0.00 0.00 0.02 0.06 0.03 0.03 0.02 0.00 0.00 0.00 0.00 0.00 0.00 0.00 0.00 0.00 0.00 0.00 0.00 0.00 0.00 0.00 0.00 0.01 0.00 0.03 0.23 0.68 0.10 0.02 0.24 0.10 0.00 0.00 0.02 0.01 0.33 1.04 0.42 0.17 0.07 0.07 0.06 0.03 0.03 0.04 0.04 0.03 0.01 0.05 0.06 0.03 0.05 0.12 0.27 0.08
0.25 0.22 0.11 0.12 0.05 0.02 0.04 0.03 0.02 0.05 0.23 0.19 0.29 0.27 0.02 0.02 0.02 0.07 0.30 0.80 0.10 0.07 0.07 0.10 0.08 0.03 0.01 0.00 0.01 0.03 0.12 0.18 0.16 0.02 0.00 0.00 0.00 0.00 0.00 0.00 0.00 0.00 0.00 0.00 0.00 0.00 0.00 0.00 0.00 0.00 0.00 0.00 0.02 0.00 0.02 0.10 0.09 0.56 0.49 0.15 0.01 0.00 0.00 0.00 0.02 0.23 0.81 0.44 0.19 0.09 0.04 0.06 0.05 0.02 0.01 0.01 0.05 0.21 0.14 0.10 0.06 0.06 0.07 0.16 0.12 0.09
0.15 0.15 0.13 0.15 0.13 0.10 0.08 0.03 0.05 0.11 0.26 0.35 0.26 0.34 0.25 0.22 0.33 0.53 1.22 0.14 0.23 0.13 0.12 0.17 0.12 0.06 0.04 0.05 0.07 0.15 0.13 0.03 0.01 0.00 0.00 0.00 0.00 0.00 0.00 0.00 0.01 0.01 0.02 0.01 0.01 0.00 0.00 0.00 0.00 0.00 0.01 0.00 0.00 0.00 0.02 0.18 0.64 0.56 0.41 0.08 0.00 0.00 0.00 0.00 0.02 0.27 0.17 0.04 0.03 0.03 0.05 0.05 0.05 0.03 0.10 0.25 0.35 0.34 0.11 0.05 0.05 0.03 0.02 0.22 0.25 0.09
0.75 0.30 0.40 0.24 0.21 0.08 0.09 0.13 0.12 0.18 0.62 0.23 0.66 0.35 0.37 1.12 0.86 0.48 0.31 0.27 0.21 0.39 0.16 0.22 0.15 0.13 0.09 0.09 0.05 0.02 0.00 0.00 0.00 0.01 0.01 0.01 0.01 0.01 0.01 0.01 0.01 0.01 0.01 0.01 0.00 0.01 0.00 0.00 0.02 0.17 0.28 0.25 0.28 0.36 0.52 0.58 0.48 0.38 0.40 0.26 0.27 0.31 0.20 0.11 0.10 0.14 0.10 0.06 0.06 0.05 0.03 0.02 0.08 0.14 0.20 0.35 0.14 0.29 0.15 0.09 0.09 0.03 0.25 0.37 0.27 0.09
0.82 0.48 0.46 0.23 0.29 0.42 0.33 0.28 0.44 0.50 0.31 0.15 0.54 1.28 0.64 0.77 0.80 0.55 0.59 0.69 0.48 0.32 0.28 0.24 0.35 0.13 0.07 0.01 0.00 0.00 0.01 0.00 0.01 0.01 0.01 0.02 0.03 0.02 0.02 0.03 0.02 0.03 0.03 0.03 0.11 0.12 0.01 0.13 0.38 0.42 0.40 0.39 0.42 0.40 0.44 0.38 0.28 0.38 0.34 0.25 0.32 0.18 0.11 0.10 0.06 0.06 0.16 0.18 0.12 0.04 0.02 0.05 0.12 0.14 0.20 0.19 0.31 0.25 0.29 0.22 0.21 0.24 0.56 0.32 0.11 0.24
0.83 0.65 0.97 0.85 0.39 0.26 0.61 0.50 0.50 0.19 0.30 0.28 0.58 0.63 0.51 0.82 1.11 0.47 0.37 0.91 0.95 0.56 0.25 0.08 0.18 0.10 0.03 0.01 0.05 0.01 0.02 0.02 0.01 0.01 0.01 0.01 0.02 0.02 0.04 0.04 0.05 0.05 0.11 0.27 0.25 0.19 0.28 0.34 0.37 0.31 0.29 0.38 0.40 0.29 0.36 0.30 0.13 0.04 0.01 0.04 0.07 0.04 0.01 0.04 0.07 0.11 0.13 0.07 0.03 0.02 0.13 0.11 0.15 0.31 0.18 0.25 0.33 0.33 0.07 0.25 0.44 0.42 0.27 0.32 0.35 0.28
0.67 0.41 0.57 0.40 0.55 0.27 0.26 0.47 0.89 0.48 0.31 0.46 0.29 0.44 0.32 0.61 1.31 0.95 0.40 0.61 1.10 1.18 0.30 0.21 0.07 0.10 0.04 0.06 0.03 0.02 0.06 0.06 0.06 0.04 0.02 0.06 0.05 0.10 0.06 0.08 0.06 0.12 0.22 0.28 0.38 0.34 0.43 0.65 0.80 0.77 0.76 0.82 0.79 0.85 0.74 0.78 0.43 0.32 0.21 0.22 0.11 0.12 0.13 0.11 0.04 0.03 0.03 0.03 0.03 0.06 0.17 0.18 0.21 0.19 0.35 0.43 0.20 0.26 0.24 0.34 0.23 0.14 0.21 0.29 0.11 0.21
0.61 0.27 0.56 0.39 0.80 0.28 1.34 0.60 0.55 1.24 0.50 0.48 0.55 0.41 0.38 0.19 1.17 1.51 0.72 0.40 0.79 1.19 0.49 0.30 0.09 0.13 0.03 0.06 0.05 0.03 0.04 0.03 0.04 0.09 0.09 0.05 0.08 0.06 0.05 0.05 0.07 0.13 0.12 0.25 0.34 0.53 0.67 1.00 0.84 0.65 0.68 0.75 0.70 0.82 0.85 0.88 0.79 0.72 0.56 0.58 0.61 0.70 0.59 0.63 0.46 0.24 0.25 0.04 0.14 0.22 0.16 0.28 0.22 0.24 0.15 0.18 0.34 0.23 0.08 0.04 0.11 0.14 0.16 0.22 0.32 0.49
0.91 0.57 0.55 0.45 0.62 0.41 1.16 0.87 0.93 0.88 1.04 0.95 0.89 0.75 0.87 0.97 0.82 1.23 0.62 0.39 0.87 1.13 0.62 0.43 0.30 0.15 0.04 0.06 0.07 0.18 0.17 0.18 0.37 0.35 0.58 0.59 0.68 0.30 0.39 0.35 0.53 0.54 0.64 0.60 0.71 0.82 0.85 0.97 0.71 0.81 0.73 0.72 0.86 0.83 0.98 1.14 0.94 0.98 0.91 0.67 0.65 0.62 0.56 0.46 0.46 0.45 0.46 0.46 0.42 0.37 0.43 0.57 0.47 0.34 0.18 0.08 0.04 0.03 0.09 0.13 0.29 0.16 0.21 0.28 0.52 0.37
0.84 0.39 1.10 0.65 0.68 0.64 0.94 1.18 1.38 0.68 1.20 1.46 1.06 1.36 1.24 0.84 1.04 1.24 1.22 0.72 0.31 1.11 1.12 0.46 0.33 0.18 0.25 0.18 0.17 0.30 0.20 0.17 0.22 0.36 0.52 0.58 0.53 0.77 0.82 1.05 1.37 0.89 1.08 1.37 1.50 1.19 0.93 0.91 0.93 0.89 1.07 1.02 1.04 1.09 1.31 1.66 1.50 1.48 1.50 1.30 1.75 1.65 1.74 1.57 1.40 1.21 0.90 0.81 0.87 0.92 0.90 1.10 0.57 0.53 0.16 0.09 0.08 0.10 0.16 0.36 0.41 0.25 0.38 0.29 0.39 0.66
0.80 0.80 0.85 0.75 0.79 0.73 0.81 1.26 1.27 1.17 1.19 0.79 1.09 1.28 1.18 1.30 1.43 1.45 1.44 0.97 0.78 0.70 1.60 0.63 0.19 0.17 0.05 0.04 0.08 0.10 0.18 0.37 0.45 0.35 0.54 0.35 0.51 0.43 0.54 0.56 0.76 0.77 0.65 0.55 0.61 0.82 0.71 0.57 0.50 0.47 0.43 0.77 1.27 0.97 0.85 1.38 2.00 1.50 1.40 1.37 1.58 1.56 1.59 1.28 1.60 1.65 1.38 1.20 1.29 1.19 0.87 1.04 1.07 0.80 0.29 0.18 0.66 0.41 1.21 1.17 1.14 1.04 0.85 1.01 1.09 0.84
1.04 0.79 0.65 0.96 0.70 1.09 0.63 0.98 0.91 0.88 0.94 0.94 1.07 1.00 1.00 1.03 1.08 1.28 1.70 1.64 0.88 0.55 1.10 1.13 0.70 0.51 0.31 0.06 0.07 0.13 0.14 0.08 0.11 0.23 0.88 0.84 0.52 0.80 0.93 1.15 0.42 0.54 0.74 0.60 0.65 0.54 0.54 0.40 0.51 0.90 1.12 1.45 1.71 1.67 2.08 1.90 0.89 1.23 1.60 1.44 1.27 1.76 1.72 1.13 1.36 1.08 0.98 0.97 0.98 0.72 0.80 0.58 0.58 0.82 0.96 0.86 0.76 1.01 0.71 0.38 0.21 0.52 0.96 0.87 0.75 0.89